Regional Weather Roundup
Issued by NWS Newport/Morehead, NC

Current Version | Previous Version | Graphics & Text | Print | Product List | Glossary Off
Versions: 1 2 3 4 5 6 7 8 9 10 11 12 13 14 15 16 17 18 19 20 21 22 23 24 25 26 27 28 29 30 31 32 33 34 35 36 37 38 39 40 41 42 43 44 45 46 47 48 49 50

000
ASUS42 KMHX 211113
RWRMHX
WEATHER ROUNDUP FOR EASTERN NORTH CAROLINA
NATIONAL WEATHER SERVICE NEWPORT/MOREHEAD CITY NC
700 AM EDT MON MAY 21 2018

NOTE: "FAIR" INDICATES FEW OR NO CLOUDS BELOW 12,000 FEET
WITH NO SIGNIFICANT WEATHER AND/OR OBSTRUCTIONS TO VISIBILITY

NCZ015>017-031-032-045>047-102-103-211200-
NORTH COAST

CITY           SKY/WX    TMP DP  RH WIND       PRES   REMARKS
EDENTON        PTSUNNY   74  72  91 W3        30.13R
ELIZABETH CITY FAIR      73  72  96 SW7       30.11R
KITTY HAWK     FAIR      73  70  91 CALM      30.11R
MANTEO         FAIR      72  69  92 W6        30.13R

$$

NCZ045>047-081-094-103-104-211200-
CENTRAL COAST

CITY           SKY/WX    TMP DP  RH WIND       PRES   REMARKS
FRISCO         PTSUNNY   73  71  93 W8        30.14R FOG

$$

NCZ095-097-098-100-101-211200-
SOUTHERN COAST

CITY           SKY/WX    TMP DP  RH WIND       PRES   REMARKS
BEAUFORT       PTSUNNY   73  73 100 SW9       30.15R
CEDAR ISLAND   NOT AVBL
JACKSONVILLE   FAIR      71  70  96 SW6       30.14R
PINEY ISLAND   NOT AVBL
WILMINGTON     FAIR      71  68  90 SW5       30.15R


$$

NCZ011>013-027>030-043-044-078>080-089-090>093-098-211200-
COASTAL PLAIN

CITY           SKY/WX    TMP DP  RH WIND       PRES   REMARKS
AHOSKIE        FAIR      69  69 100 CALM      30.12R
CLINTON        CLOUDY    71  71 100 CALM      30.14R
ELIZABETHTOWN  FAIR      70  69  97 S7        30.15R
GOLDSBORO      MOCLDY    73  70  88 SW7       30.13R
GREENVILLE     CLOUDY    72  72 100 W6        30.14R
HAVELOCK       NOT AVBL
KENANSVILLE    CLOUDY    72  70  94 SW3       30.15R
KINSTON        CLOUDY    72  72 100 SW6       30.14R
NEW BERN       FAIR      69  69 100 SW3       30.15R
RICHLANDS      CLOUDY    70  69  97 S8        30.15R
ROCKY MOUNT    FAIR      71  70  96 S6        30.13R
WASHINGTON     CLOUDY    71  70  97 CALM      30.14R
WHITEVILLE     FAIR      70  69  96 SW3       30.15S

$$

AMZ130-135-150-152-154-156-158-170-250-252-270-ANZ085-086-088-633-658-670-211200-
MARINE OBSERVATIONS

STATION/POSITION TIME  TEMP    WIND        PRES    WAVE   SWELL
                       AIR SEA DIR/SP/G            HT/PER HT/PER
                 (UTC) (F)     (DEG/KT/KT) (MB)    (FT/S) (FT/S)
CHESAPEAKE LIGHT NOT AVBL
64 E VA BEACH    1050   70 68  250/  8/ 10 1019.9    4/ 9   3/ 9
DUCK             1048   74 54  250/ 11/ 14 1019.2
2 E DUCK         1100      60                N/A     2/ 9
OREGON INLET     1036   73 76  230/ 11/ 13 1019.5
13E OREGON INLT  1048      64                N/A     4/ 9   3/ 9
HATTERAS CG      1048   73 76  250/  8/ 10 1020.1
DIAMOND BUOY     1100   74 74  250/ 14/ 17 1020.8
CAPE LOOKOUT     1100          240/  8/ 10 1021.2
BEAUFORT LAB     1048   73 76  240/  3/  8 1021.2
30 SE NEW RVR IN 1008   74     220/  8/ 12 1020.7
30 SE NEW RVR IN 1100      75                N/A     5/ 9   2/11
27 SE WRIGHTSVLE 1008   73 74  240/  8/ 12 1021.1
5 SE WRIGHTSVLE  1008   72 70  100/  6/  8 1020.6
225 S CAPE HAT   1050      77  160/  8/ 12 1022.5    4/ 8   3/ 8
41 SE CHARLESTON 1050      74  330/  2/  6 1021.1    5/ 8   5/ 8

$$




USA.gov is the U.S. government's official web portal to all federal, state and local government web resources and services.